Location: Sandwich
(51.2667°N, 1.3500°E)
Time: 02:45:34
(UTC+00:00)

Daily predictions for brighter satellites

Satellite Brightness Start Highest point End
(mag) Time Altitude Azimuth Time Altitude Azimuth Time Altitude Azimuth
NOSS 2-2 (D) 4.2 00:00:05 10° NW 00:04:50 85° NE 00:11:34 10° SE
Cosmos 1461 3.0 00:01:11 10° NW 00:05:15 56° SW 00:06:31 39° S
Gblst 52 Del rocket 4.2 00:00:03 10° WSW 00:06:17 75° SSE 00:11:54 10° ENE
Cosmos 1553 Rocket 4.0 00:03:21 28° S 00:06:43 78° E 00:12:57 10° NNE
Cosmos 1867 3.8 00:05:01 31° S 00:07:26 55° ESE 00:12:48 10° NE
Cosmos 2221 Rocket 3.5 00:06:47 36° S 00:08:32 77° E 00:12:57 10° NNE
Cosmos 1674 Rocket 3.9 00:06:55 33° SSE 00:08:35 54° E 00:12:49 10° NNE
USA 306 4.4 00:11:52 21° SE 00:11:52 21° SE 00:14:42 10° E
Cosmos 1238 Rocket 1.9 00:08:45 10° N 00:11:42 85° W 00:12:06 64° S
Cosmos 1674 2.5 00:10:51 44° S 00:11:57 87° E 00:15:44 10° N
ATLAS CENTAUR R/B 2.8 00:09:01 10° WNW 00:13:07 28° WSW 00:13:59 26° SW
USA 307 4.5 00:15:20 20° SE 00:15:20 20° SE 00:18:05 10° E
SL-19 R/B 4.0 00:17:33 47° SW 00:17:49 48° WSW 00:20:42 10° NNW
SL-16 R/B 4.4 00:17:15 10° ESE 00:19:29 12° E 00:21:43 10° ENE
Cosmos 468 4.4 00:16:27 10° NNW 00:21:42 76° WSW 00:24:28 28° SSE
ATLAS 5 CENTAUR R/B 3.4 00:06:45 10° NW 00:21:45 67° SW 00:24:39 25° SSE
CZ-4C R/B 3.1 00:14:57 10° NW 00:21:59 59° SW 00:27:53 20° SSE
Cosmos 2322 Rocket 3.8 00:17:08 10° WSW 00:22:04 30° NW 00:27:01 10° NNE
Cosmos 2333 Rocket 2.6 00:19:42 19° SW 00:23:44 61° NW 00:29:23 10° NNE
Cosmos 1378 Rocket 3.6 00:22:19 34° S 00:24:09 74° E 00:28:36 10° NNE
Cosmos 2322 3.8 00:20:47 24° SW 00:24:23 77° WNW 00:30:09 10° NNE
Cosmos 1844 Rocket 4.5 00:21:23 10° WNW 00:24:39 16° W 00:26:32 14° WSW
USA 215 3.3 00:20:24 10° ENE 00:26:58 81° NNW 00:33:32 10° WSW
NOSS 0 Rocket 4.2 00:29:23 27° S 00:32:44 56° ESE 00:38:49 10° NE
PSLV R/B 3.8 00:28:34 10° N 00:32:55 67° WNW 00:35:01 30° SSW
Meteor 2-10 Rocket 4.1 00:31:29 10° N 00:37:09 61° ENE 00:41:17 18° SSE
USA 32 4.4 00:35:15 24° SSE 00:38:17 57° E 00:43:27 10° NNE
Cosmos 2151 Rocket 4.2 00:35:04 10° NNW 00:39:14 43° W 00:40:53 29° SW
Cosmos 1745 Rocket 4.0 00:34:41 10° NNW 00:40:55 71° W 00:44:35 26° S
Cosmos 1975 Rocket 4.4 00:39:39 18° SE 00:42:10 32° E 00:46:09 10° NNE
Cosmos 839 Rocket 4.1 00:36:09 10° NW 00:42:26 73° SW 00:49:12 12° SSE
Okean 2 Rocket 4.0 00:39:21 10° NNW 00:43:30 35° W 00:45:14 26° SW
Okean 2 4.2 00:42:13 26° SW 00:44:00 41° WNW 00:47:54 10° N
ADEOS Rocket 4.0 00:42:18 21° SW 00:44:59 30° W 00:50:11 10° NNW
USA 308 3.8 00:44:46 29° SSE 00:45:23 30° SE 00:49:05 10° E
Cosmos 2219 Rocket 2.7 00:42:56 18° SW 00:47:01 53° NW 00:52:32 10° NNE
Meteor 2-12 Rocket 4.4 00:42:25 10° NNW 00:48:32 83° W 00:52:26 24° S
Cosmos 1025 Rocket 4.4 00:47:03 17° SE 00:49:38 30° E 00:53:24 10° NNE
GP-B 3.2 00:51:13 10° N 00:55:40 69° E 00:58:07 26° SSE
CZ-2D R/B 3.3 00:53:46 10° NNE 00:58:40 34° E 01:02:28 15° SSE
Cosmos 1300 2.6 00:56:05 10° NNW 00:59:53 75° W 01:01:27 33° S
Lacrosse 5 3.4 00:58:31 18° SSE 01:00:17 21° SE 01:04:06 10° ENE
ASTEX 1 4.4 00:57:54 10° N 01:02:22 36° WNW 01:05:07 20° SW
SL-14 R/B 3.3 01:02:27 33° SSW 01:04:05 70° WNW 01:07:57 10° N
USA 267 4.1 01:02:14 23° SSW 01:04:37 29° SW 01:10:11 10° WNW
USA 305 3.2 01:07:08 31° SSW 01:08:42 47° SSE 01:12:44 10° ENE
Cosmos 371 Rocket 3.3 01:06:03 27° SSW 01:08:45 84° WNW 01:13:39 10° NNE
Cosmos 2150 Rocket 4.0 01:06:08 25° SSW 01:09:11 81° WNW 01:14:23 10° NNE
USA 229 DEB 4.2 01:02:18 10° NW 01:09:14 47° WSW 01:15:06 16° S
USA 229 4.2 01:02:23 10° NW 01:09:20 47° WSW 01:15:15 16° S
Cosmos 2237 Rocket 2.2 01:11:28 24° SSW 01:15:00 81° ESE 01:20:45 10° NNE
COSMOS 2428 3.5 01:12:17 15° WSW 01:16:45 47° NW 01:22:15 10° NNE
Cosmos 1437 Rocket 4.0 01:15:03 10° NW 01:18:13 26° W 01:19:16 22° WSW
Cosmos 405 Rocket 3.9 01:18:03 21° WSW 01:19:48 31° WNW 01:23:14 10° N
Cosmos 304 Rocket 3.8 01:17:17 25° SSW 01:20:04 81° ESE 01:24:56 10° NNE
SL-16 R/B 2.8 01:15:19 10° SSE 01:21:29 71° ENE 01:27:43 10° NNW
Okean 1 Rocket 4.1 01:18:17 10° NNW 01:22:11 31° W 01:24:05 22° SW
Lacrosse 5 rocket 3.2 01:21:54 14° SSE 01:23:09 15° SE 01:25:32 10° E
Cosmos 1125 Rocket 3.7 01:20:01 22° SW 01:23:21 62° WNW 01:28:33 10° NNE
Cosmos 1953 3.6 01:21:37 10° NNW 01:25:00 26° W 01:26:26 21° WSW
SME Rocket 3.3 01:24:34 23° S 01:27:02 64° WSW 01:32:20 10° NNW
Cosmos 2074 Rocket 4.3 01:21:05 10° N 01:27:23 68° ENE 01:33:39 10° SSE
Cosmos 2360 Rocket 4.4 01:23:39 10° W 01:27:45 20° NW 01:31:53 10° NNE
Resurs 1-4 Rocket 2.5 01:22:49 10° NNE 01:28:02 58° E 01:31:57 18° S
Cosmos 2297 3.9 01:26:10 10° NNW 01:31:57 75° ENE 01:37:42 10° SE
Cosmos 1943 Rocket 2.2 01:26:17 10° NNW 01:32:00 90° NE 01:37:41 10° SSE
Cosmos 1709 Rocket 4.4 01:29:28 10° NNW 01:35:17 46° W 01:39:17 20° SSW
MOZ.5/SAFIR/RUBIN 5/SL-8 4.3 01:33:59 22° SSW 01:36:39 45° W 01:41:14 10° NNW
Cosmos 1626 4.4 01:36:40 10° W 01:38:43 14° WNW 01:40:48 10° NNW
Cosmos 2315 Rocket 4.2 01:35:34 20° SSW 01:40:06 63° WNW 01:46:28 10° N
Cosmos 2184 Rocket 4.1 01:35:59 10° N 01:42:18 82° E 01:48:31 10° SSE
EO 1 Delta rocket 4.3 01:38:13 10° N 01:42:41 50° WNW 01:46:02 19° SW
Cosmos 2278 Rocket 3.3 01:38:10 10° NW 01:42:47 26° WSW 01:45:23 19° SW
ADEOS II 2.9 01:38:52 10° NNE 01:43:54 44° E 01:48:40 11° S
IDEFIX/ARIANE 42P 3.7 01:39:50 10° NNE 01:44:46 38° E 01:49:39 10° SSE
USA 306 2.8 01:47:34 18° WSW 01:50:38 76° SSE 01:54:48 10° ENE
Cosmos 2084 Rocket 3.4 01:49:15 22° SSW 01:51:28 58° SE 01:55:13 10° NE
Thor Agena Rocket 4.0 01:47:04 10° N 01:52:14 55° WNW 01:56:09 17° SW
USA 307 2.8 01:51:04 18° SW 01:54:07 73° SSE 01:58:18 10° ENE
NPP 3.7 01:50:39 10° NNE 01:56:05 80° ESE 02:00:36 15° SSW
ERBS 1.9 01:54:54 23° SW 01:56:37 80° SSE 01:59:42 10° ENE
Cosmos 2369 Rocket 2.7 01:51:40 10° NNW 01:57:15 62° NE 02:02:47 10° SE
Gblst 52 Del rocket 4.2 01:52:07 10° W 01:58:02 87° N 02:03:34 10° E
USA-17 4.5 01:55:21 10° NW 01:58:34 86° NE 02:02:35 10° SE
Cosmos 1455 Rocket 3.9 01:56:28 10° NNW 02:00:32 35° W 02:03:14 18° SW
Cosmos 614 Rocket 4.0 01:55:46 10° NNW 02:00:59 89° ENE 02:06:13 10° SSE
CZ-4 R/B 3.8 01:56:25 10° NNE 02:01:05 78° WNW 02:04:41 17° SSW
Cosmos 2228 4.0 01:56:54 10° N 02:01:10 48° ENE 02:05:23 10° SSE
EO 1 Del DPAF 4.1 01:58:50 10° NNE 02:02:11 40° E 02:05:16 11° S
SL-16 R/B 2.4 01:58:00 16° SSW 02:02:31 68° ESE 02:08:11 10° NE
Cosmos 2251 Rocket 4.1 01:57:43 10° NNW 02:02:57 62° ENE 02:08:11 10° SE
Cosmos 1656 Rocket 4.3 02:01:16 10° NNW 02:06:39 59° NE 02:11:59 10° SE
Cosmos 1980 4.4 02:02:27 13° WSW 02:07:16 46° NW 02:12:44 10° NNE
Meteor 1-28 Rocket 3.1 02:03:45 10° SSE 02:07:29 89° ENE 02:11:15 10° NNW
Cosmos 2333 Rocket 4.4 02:05:18 10° WNW 02:09:13 19° NNW 02:13:11 10° NNE
CZ-4C R/B 4.5 02:05:13 10° WNW 02:09:38 16° WSW 02:12:59 13° SW
USA 215 4.0 02:03:22 10° ENE 02:09:43 55° N 02:16:05 10° W
COSMOS 2455 3.6 02:04:48 12° S 02:10:02 45° ESE 02:15:44 10° NE
Cosmos 332 Rocket 4.4 02:07:03 15° SW 02:10:46 47° WNW 02:15:26 10° NNE
NOSS 3 (A) 3.8 02:10:22 32° W 02:10:51 45° NW 02:12:37 10° NE
Cosmos 1536 Rocket 3.7 02:08:03 12° S 02:12:03 72° E 02:16:26 10° NNE
Cosmos 1975 Rocket 4.2 02:16:47 14° SW 02:20:00 32° WNW 02:24:03 10° N
Nadezhda 1 Rocket 4.1 02:15:13 10° S 02:21:35 84° E 02:27:54 10° N
Meteor 1-24 Rocket 4.0 02:17:03 14° SSW 02:21:46 56° WNW 02:27:07 10° N
MSX 4.3 02:16:13 10° NNE 02:21:56 60° ESE 02:27:38 10° S
UNK 4.1 02:19:09 12° S 02:23:14 45° W 02:27:41 10° NNW
Cosmos 1455 2.7 02:20:56 10° NNW 02:24:25 40° W 02:27:22 13° SSW
USA 308 2.9 02:20:32 10° WSW 02:24:44 86° NNW 02:28:57 10° ENE
Cosmos 1025 Rocket 4.1 02:23:55 14° SW 02:27:11 33° WNW 02:31:06 10° N
MOS 1 Rocket 3.4 02:23:22 11° S 02:27:17 46° W 02:31:28 10° NNW
Cosmos 1271 Rocket 2.7 02:24:30 10° NNW 02:28:18 65° W 02:32:06 10° S
Cosmos 2219 Rocket 4.5 02:28:45 10° WNW 02:32:18 17° NNW 02:35:53 10° N
Cosmos 1606 Rocket 4.0 02:27:58 10° N 02:32:24 66° ENE 02:36:45 10° SSE
ALOS 4.5 02:32:20 10° NE 02:36:01 22° E 02:39:40 10° SE
CZ-2D R/B 2.8 02:33:44 10° N 02:38:50 44° WNW 02:43:47 10° SW
Lacrosse 5 1.9 02:37:42 11° SW 02:42:40 80° SE 02:47:46 10° ENE
Helios 1B rocket 3.9 02:39:20 10° NNE 02:43:04 34° E 02:46:47 10° SSE
Cosmos 2341 Rocket 4.2 02:38:40 10° N 02:45:07 84° E 02:51:31 10° S
USA 305 3.2 02:44:03 10° W 02:48:13 68° NNW 02:52:24 10° ENE
Cosmos 2154 Rocket 4.4 02:42:23 10° NNW 02:48:28 49° W 02:54:29 10° SSW
Meteor 2-1 Rocket 4.3 02:43:52 10° NNW 02:49:42 89° WSW 02:55:22 10° S
BREEZE-M DEB (TANK) 4.4 02:47:41 10° SSW 02:50:50 17° SSE 02:52:46 10° ESE
Cosmos 407 Rocket 3.6 02:45:34 10° NNW 02:50:56 85° ENE 02:56:14 10° SSE
SL-8 Rocket 4.2 02:45:29 10° N 02:51:51 80° ENE 02:58:11 10° SSE
Cosmos 1943 3.9 02:52:04 10° S 02:57:34 53° ESE 03:03:06 10° NE
Cosmos 1328 4.2 02:53:47 10° S 02:57:42 64° E 03:01:40 10° NNE
Helios 1A 3.8 02:54:13 10° SSW 02:58:01 32° W 03:01:50 10° NNW
Genesis I 3.2 02:54:28 10° NW 02:58:34 82° SW 03:02:34 10° SE
Cosmos 2237 Rocket 3.8 02:55:00 10° W 02:59:45 26° NW 03:04:32 10° NNE
Lacrosse 5 rocket 1.3 02:57:38 10° SW 03:01:32 76° SE 03:05:42 10° ENE
Cosmos 1140 Rocket 3.5 02:56:37 10° NNW 03:01:53 77° WSW 03:07:07 10° SSE
ATLAS 2AS CENTAUR R/B 4.5 02:57:34 10° NW 03:04:24 37° NNE 03:10:48 10° E
SL-16 R/B 3.7 03:00:38 10° SW 03:05:39 25° W 03:10:43 10° NW
Resurs 1-4 Rocket 3.4 03:03:11 10° N 03:07:32 27° WNW 03:11:53 10° WSW
NOSS 3-4 (A) 4.4 03:02:33 10° NW 03:09:15 66° NE 03:16:51 10° ESE
NOSS 3-4 (C) 4.4 03:02:38 10° NW 03:09:19 66° NE 03:16:53 10° ESE
Lacrosse 4 Rocket 4.1 03:07:53 10° SE 03:09:57 13° ESE 03:12:01 10° ENE
Cosmos 1892 Rocket 3.9 03:07:04 10° S 03:11:29 72° E 03:15:59 10° NNE
